Location: Newark
(48.3453°N, 0.5589°E)
Time: 20:53:39
(UTC+00:00)

A-11 Canister half - Pass Details

Date: 09 December 2019
Orbit: 1517 x 1683 km, 47.2° (Epoch: 22 January)

Event Time Altitude Azimuth Distance (km) Brightness Sun altitude
Rises 16:35:46 0° 281° (W) 4,846 12.5 -5.4°
Reaches altitude 10° 16:38:51 10° 280° (W) 3,879 12.0 -5.9°
Maximum altitude 16:48:48 74° 198° (SSW) 1,724 9.4 -7.4°
Drops below altitude 10° 16:58:55 10° 116° (ESE) 3,944 10.8 -8.9°
Sets 17:02:05 0° 114° (ESE) 4,930 11.3 -9.4°
